This demonstration page uses our WeatherBlox Daily Observations layout. Learn more.

Left ArrowRight Arrow

44.89941, -97.11507

Hourly Observations for September 3, 2018

Temp ( °F °C ) Dew Point ( °F °C ) Humidity (%) Winds ( mph kmh ) Pressure ( in mb ) Visibility ( mi km ) Precip ( " mm )
12:53 am 00:53 Cloudy 61 16.1 57 13.9 87 87 NNE 5 7 30.06 1018 10 16 0.00 0.00
1:53 am 01:53 Cloudy 63 17.2 55 12.8 76 76 ENE 5 7 30.05 1018 10 16 0.00 0.00
2:10 am 02:10 Cloudy 64 17.8 54 12.2 70 70 ENE 7 11 30.03 1017 10 16 0.00 0.00
2:53 am 02:53 Cloudy 64 17.8 54 12.2 70 70 ENE 8 13 30.05 1018 10 16 0.00 0.00
3:53 am 03:53 Cloudy 64 17.8 55 12.8 73 73 ESE 8 13 30.06 1018 10 16 0.00 0.00
4:00 am 04:00 Cloudy 65 18.3 55 12.8 70 70 E 6 9 30.03 1017 10 16 0.00 0.00
4:16 am 04:16 Cloudy 64 17.8 55 12.8 73 73 E 7 11 30.03 1017 10 16 0.00 0.00
4:44 am 04:44 Cloudy 64 17.8 56 13.3 75 75 E 7 11 30.03 1017 10 16 0.00 0.00
4:53 am 04:53 Cloudy 64 17.8 56 13.3 75 75 E 6 9 30.06 1018 10 16 0.00 0.00
5:49 am 05:49 Mostly Clear 63 17 55 13 77 77 E 8 13 30.03 1017 10 16 0.00 0.00
5:53 am 05:53 Partly Cloudy 63 17.2 56 13.3 78 78 E 8 13 30.06 1018 10 16 0.00 0.00
6:53 am 06:53 Mostly Clear 63 17.2 57 13.9 81 81 E 7 11 30.06 1018 10 16 0.00 0.00
7:53 am 07:53 Sunny 62 16.7 57 13.9 84 84 E 12 19 30.08 1019 10 16 0.00 0.00
8:53 am 08:53 Sunny 64 17.8 58 14.4 81 81 E 12 19 30.09 1019 10 16 0.00 0.00
9:12 am 09:12 Mostly Cloudy 65 18.3 59 15 81 81 E 9 15 30.03 1017 10 16 0.00 0.00
9:53 am 09:53 Cloudy 66 18.9 61 16.1 84 84 E 10 17 30.08 1019 10 16 0.00 0.00
10:53 am 10:53 Mostly Cloudy 69 20.6 64 17.8 84 84 SE 9 15 30.08 1019 10 16 0.00 0.00
11:12 am 11:12 Cloudy 70 21.1 65 18.3 84 84 VRB 7 11 30.03 1017 10 16 0.00 0.00
11:39 am 11:39 Mostly Sunny 72 22.2 66 18.9 82 82 ESE 8 13 30.00 1016 10 16 0.00 0.00
11:53 am 11:53 Mostly Cloudy 71 21.7 67 19.4 87 87 ESE 8 13 30.06 1018 10 16 0.00 0.00
12:40 pm 12:40 Cloudy 72 22.2 68 20 87 87 SE 9 15 29.97 1015 10 16 0.00 0.00
12:53 pm 12:53 Mostly Cloudy 75 23.9 68 20 79 79 SE 8 13 30.04 1017 10 16 0.00 0.00
1:44 pm 13:44 Mostly Cloudy 75 23.9 68 20 79 79 SSE 9 15 29.97 1015 10 16 0.00 0.00
1:53 pm 13:53 Mostly Cloudy 75 23.9 68 20 79 79 ESE 9 15 30.02 1017 10 16 0.00 0.00
2:00 pm 14:00 Mostly Cloudy 74 23.3 68 20 82 82 SSE 8 13 29.94 1014 10 16 0.00 0.00
2:45 pm 14:45 Mostly Cloudy 76 24.4 69 20.6 79 79 SSE 13 20 29.94 1014 10 16 0.00 0.00
2:53 pm 14:53 Mostly Cloudy 77 25 70 21.1 79 79 SSE 10 17 30.01 1016 10 16 0.00 0.00
3:53 pm 15:53 Mostly Cloudy 76 24.4 68 20 77 77 ESE 10 17 30.00 1016 10 16 0.00 0.00
4:00 pm 16:00 Mostly Cloudy 75 23.9 68 20 79 79 SE 12 19 29.94 1014 10 16 0.00 0.00
4:22 pm 16:22 Mostly Cloudy 76 24.4 70 21.1 82 82 SE 13 20 29.94 1014 10 16 0.00 0.00
4:29 pm 16:29 Partly Cloudy 76 24.4 69 20.6 79 79 SE 12 19 29.94 1014 10 16 0.00 0.00
4:53 pm 16:53 Mostly Sunny 76 24.4 70 21.1 82 82 SE 12 19 29.99 1016 10 16 0.00 0.00
5:39 pm 17:39 Mostly Cloudy 75 23.9 69 20.6 82 82 SE 9 15 29.91 1013 10 16 0.00 0.00
5:53 pm 17:53 Cloudy 76 24.4 68 20 77 77 SE 10 17 29.98 1015 10 16 0.00 0.00
6:02 pm 18:02 Mostly Cloudy 76 24.4 68 20 77 77 SE 8 13 29.91 1013 10 16 0.00 0.00
6:53 pm 18:53 Sunny 75 23.9 69 20.6 82 82 ESE 8 13 29.97 1015 10 16 0.00 0.00
7:53 pm 19:53 Mostly Cloudy 73 22.8 69 20.6 87 87 SE 10 17 29.98 1015 10 16 0.00 0.00
8:53 pm 20:53 Clear 71 21.7 68 20 90 90 ESE 6 9 29.99 1016 10 16 0.00 0.00
9:37 pm 21:37 Mostly Cloudy 70 21.1 68 20 93 93 SE 7 11 29.94 1014 10 16 0.00 0.00
9:44 pm 21:44 Partly Cloudy 70 21.1 69 20.6 97 97 SE 6 9 29.91 1013 10 16 0.00 0.00
9:53 pm 21:53 Mostly Clear 69 20.6 69 20.6 100 100 SE 6 9 29.99 1016 10 16 0.00 0.00
10:53 pm 22:53 Clear 69 20.6 68 20 96 96 SSE 12 19 29.98 1015 10 16 0.00 0.00
11:53 pm 23:53 Clear 68 20 68 20 100 100 SSE 12 19 29.97 1015 10 16 0.00 0.00

Powered by AerisWeather